This is the latest recevied weather packets stored in our database for station/object KI8L. If no packets are shown the sender has not sent any weather packets the latest 10 day(s).
| Time | Temp. | Humidity | Pressure | Rain* | Wind** | Luminosity | Snow |
|---|---|---|---|---|---|---|---|
| 1777671914 | 6.67° C | 82% | 1016.4 hPa | 0 mm | - | 170 W/m² | - |
| 1777671610 | 6.67° C | 80% | 1016.2 hPa | 0 mm | - | 112 W/m² | - |
| 1777671307 | 6.67° C | 81% | 1016.4 hPa | 0 mm | - | 109 W/m² | - |
| 1777671002 | 7.78° C | 81% | 1016.3 hPa | 0 mm | - | 103 W/m² | - |
| 1777670699 | 7.78° C | 83% | 1016.1 hPa | 0 mm | - | 350 W/m² | - |
| 1777670396 | 7.22° C | 86% | 1015.9 hPa | 0 mm | - | 351 W/m² | - |
| 1777670093 | 6.67° C | 89% | 1016 hPa | 0 mm | - | 187 W/m² | - |
| 1777669790 | 6.67° C | 89% | 1016.1 hPa | 0 mm | - | 457 W/m² | - |
| 1777669487 | 6.11° C | 94% | 1015.9 hPa | 0 mm | - | 304 W/m² | - |
| 1777669183 | 6.11° C | 93% | 1015.8 hPa | 0 mm | - | 149 W/m² | - |
| 1777668880 | 6.11° C | 95% | 1016 hPa | 0 mm | - | 66 W/m² | - |
| 1777668578 | 6.11° C | 95% | 1015.8 hPa | 0 mm | - | 178 W/m² | - |
| 1777668273 | 6.67° C | 96% | 1015.6 hPa | 0 mm | - | 303 W/m² | - |
| 1777667970 | 6.11° C | 98% | 1015.6 hPa | 0 mm | - | 319 W/m² | - |
| 1777667667 | 5.56° C | 98% | 1015.6 hPa | 0 mm | - | 185 W/m² | - |
| 1777667365 | 5° C | 99% | 1015.6 hPa | 0 mm | - | 155 W/m² | - |
| 1777667061 | 5° C | 99% | 1015.6 hPa | 0 mm | - | 85 W/m² | - |
| 1777666758 | 5° C | 99% | 1015.5 hPa | 0 mm | - | 83 W/m² | - |
| 1777666455 | 5.56° C | 99% | 1015.4 hPa | 0 mm | - | 89 W/m² | - |
| 1777666151 | 5.56° C | 98% | 1015.3 hPa | 0 mm | - | 152 W/m² | - |
| 1777665849 | 5° C | 98% | 1015.3 hPa | 0 mm | - | 127 W/m² | - |
| 1777665546 | 5.56° C | 99% | 1015.4 hPa | 0 mm | - | 115 W/m² | - |
| 1777665242 | 5.56° C | 99% | 1015.3 hPa | 0 mm | - | 120 W/m² | - |
| 1777664938 | 5.56° C | 99% | 1015.4 hPa | 1.78 mm | - | 87 W/m² | - |
| 1777664634 | 5.56° C | 99% | 1015.2 hPa | 1.78 mm | - | 131 W/m² | - |
* Rain latest hour (hover to see other rain measurements)
** Current wind speed in m/s (hover to see current wind gust speed)